TimeEDT,TemperatureF,Dew PointF,Humidity,Sea Level PressureIn,VisibilityMPH,Wind Direction,Wind SpeedMPH,Gust SpeedMPH,PrecipitationIn,Events,Conditions,WindDirDegrees,DateUTC
12:12 AM,33.8,28.4,81,30.11,8.0,SW,9.2,-,N/A,,Overcast,230,2013-03-15 04:12:00
12:53 AM,33.1,28.9,85,30.13,8.0,SW,6.9,-,N/A,,Overcast,230,2013-03-15 04:53:00
1:53 AM,33.1,28.9,85,30.10,7.0,SW,8.1,-,N/A,,Overcast,230,2013-03-15 05:53:00
2:34 AM,30.2,28.4,93,30.05,5.0,South,5.8,-,N/A,,Partly Cloudy,190,2013-03-15 06:34:00
2:53 AM,30.9,28.0,89,30.06,5.0,SSW,4.6,-,N/A,,Clear,200,2013-03-15 06:53:00
3:53 AM,30.9,28.0,89,30.05,6.0,SSW,6.9,-,N/A,,Clear,200,2013-03-15 07:53:00
5:53 AM,32.0,28.9,88,30.00,6.0,SW,6.9,-,N/A,,Clear,220,2013-03-15 09:53:00
6:53 AM,32.0,28.9,88,29.99,7.0,WSW,9.2,-,N/A,,Clear,240,2013-03-15 10:53:00
7:53 AM,32.0,28.9,88,29.98,6.0,SW,8.1,-,N/A,,Clear,230,2013-03-15 11:53:00
8:53 AM,33.1,30.0,89,29.96,4.0,SW,5.8,-,N/A,,Clear,220,2013-03-15 12:53:00
9:46 AM,33.8,30.2,87,29.93,5.0,SW,10.4,-,N/A,,Partly Cloudy,220,2013-03-15 13:46:00
9:53 AM,34.0,30.9,89,29.96,5.0,WSW,9.2,-,N/A,,Partly Cloudy,240,2013-03-15 13:53:00
10:53 AM,36.0,30.9,82,29.96,5.0,West,9.2,-,N/A,,Haze,260,2013-03-15 14:53:00
11:09 AM,35.6,32.0,87,29.94,5.0,West,10.4,-,N/A,,Mostly Cloudy,260,2013-03-15 15:09:00
11:53 AM,37.9,32.0,79,29.95,5.0,WSW,9.2,-,N/A,,Haze,250,2013-03-15 15:53:00
12:09 PM,37.4,32.0,81,29.92,6.0,WSW,6.9,-,N/A,,Haze,250,2013-03-15 16:09:00
12:53 PM,37.9,33.1,83,29.94,6.0,West,6.9,-,N/A,,Haze,260,2013-03-15 16:53:00
1:53 PM,39.0,32.0,76,29.94,6.0,West,8.1,-,N/A,,Haze,260,2013-03-15 17:53:00
2:53 PM,37.9,32.0,79,29.91,5.0,West,5.8,-,N/A,,Haze,280,2013-03-15 18:53:00
3:53 PM,37.0,32.0,82,29.91,5.0,WNW,5.8,-,N/A,,Haze,300,2013-03-15 19:53:00
4:19 PM,37.4,33.8,87,29.88,4.0,WNW,5.8,-,N/A,,Overcast,300,2013-03-15 20:19:00
4:53 PM,36.0,32.0,86,29.89,4.0,NW,4.6,-,N/A,,Overcast,320,2013-03-15 20:53:00
5:41 PM,35.6,33.8,93,29.87,4.0,NW,3.5,-,N/A,,Overcast,320,2013-03-15 21:41:00
5:51 PM,35.6,33.8,93,29.87,3.0,Calm,Calm,-,0.00,,Overcast,0,2013-03-15 21:51:00
5:53 PM,37.0,33.1,86,29.89,3.0,Calm,Calm,-,0.00,,Overcast,0,2013-03-15 21:53:00
6:15 PM,35.6,33.8,93,29.87,2.5,NNW,3.5,-,0.00,Rain,Light Rain,330,2013-03-15 22:15:00
6:32 PM,35.6,33.8,93,29.86,2.0,Variable,3.5,-,0.01,Rain,Light Rain,0,2013-03-15 22:32:00
6:41 PM,35.6,33.8,93,29.86,2.5,NNE,4.6,-,0.01,Rain,Light Rain,20,2013-03-15 22:41:00
6:53 PM,35.1,33.1,92,29.87,2.0,NNE,3.5,-,0.02,Rain,Light Rain,20,2013-03-15 22:53:00
7:36 PM,35.6,33.8,93,29.85,2.5,ENE,3.5,-,0.00,,Overcast,60,2013-03-15 23:36:00
7:53 PM,36.0,34.0,93,29.87,3.0,Calm,Calm,-,0.00,,Overcast,0,2013-03-15 23:53:00
8:50 PM,35.6,33.8,93,29.82,2.5,ENE,3.5,-,0.01,,Overcast,70,2013-03-16 00:50:00
8:53 PM,36.0,34.0,93,29.84,2.5,ENE,3.5,-,0.01,,Overcast,70,2013-03-16 00:53:00
9:06 PM,35.6,33.8,93,29.82,3.0,East,5.8,-,N/A,,Overcast,80,2013-03-16 01:06:00
9:19 PM,35.6,33.8,93,29.82,3.0,ENE,6.9,-,N/A,,Overcast,60,2013-03-16 01:19:00
9:38 PM,35.6,33.8,93,29.81,3.0,East,5.8,-,N/A,,Overcast,80,2013-03-16 01:38:00
9:53 PM,36.0,34.0,93,29.83,2.5,East,4.6,-,N/A,,Overcast,80,2013-03-16 01:53:00
10:02 PM,35.6,33.8,93,29.81,3.0,ENE,4.6,-,N/A,,Overcast,70,2013-03-16 02:02:00
10:34 PM,35.6,33.8,93,29.83,3.0,Calm,Calm,-,N/A,,Overcast,0,2013-03-16 02:34:00
10:53 PM,36.0,34.0,93,29.86,3.0,Calm,Calm,-,N/A,,Overcast,0,2013-03-16 02:53:00
11:28 PM,35.6,33.8,93,29.83,2.5,Calm,Calm,-,N/A,,Overcast,0,2013-03-16 03:28:00
11:53 PM,36.0,34.0,93,29.84,2.5,Calm,Calm,-,N/A,,Overcast,0,2013-03-16 03:53:00